Wind_Speed
7 6 5 5 5 4 3 2 1 0 0 1 2 2 3 3 4 5 5 5 6 6 6 6 7 8 8 8 8 8 8 9 9 8 9 9 9 9 10 9 9 9 10
6 5 4 4 3 2 2 2 1 1 1 1 2 3 4 4 5 6 6 6 6 7 7 7 8 10 10 10 9 9 10 9 9 9 10 10 11 11 11 11 11 11 11
4 4 3 2 2 2 2 1 1 1 1 2 2 3 4 5 6 7 7 7 7 8 8 9 9 10 10 10 10 11 11 11 11 11 10 10 11 11 11 11 11 11 11
4 3 3 3 2 2 1 1 1 1 2 2 3 3 4 5 6 7 7 7 7 8 8 9 9 10 11 11 12 11 11 11 11 12 12 12 13 13 13 13 12 12 13
4 3 3 3 2 2 2 1 2 2 2 2 2 3 4 5 7 7 8 8 8 9 8 8 10 10 10 11 12 11 11 11 12 12 13 14 14 14 14 14 14 14 14
4 3 3 3 3 2 2 2 2 2 2 3 3 4 5 6 7 8 8 9 9 9 9 10 10 11 11 12 12 12 12 13 14 14 14 14 15 15 15 14 14 14 15
4 4 4 4 3 2 2 2 3 3 4 4 5 6 6 7 8 8 9 9 9 10 11 11 11 12 12 13 13 13 13 13 14 14 15 15 16 16 15 15 16 16 15
5 5 5 5 4 3 3 4 4 5 5 6 6 7 7 8 8 9 9 10 10 11 11 11 12 13 13 13 13 13 13 13 14 16 16 16 16 15 15 16 17 17 17
5 5 5 5 5 4 4 5 5 6 7 8 8 8 9 9 9 10 10 10 11 11 11 12 13 13 13 13 13 13 14 15 15 15 15 15 16 17 16 16 17 18 18
5 6 6 6 6 6 5 6 6 7 7 8 9 10 10 10 10 11 11 11 11 11 11 12 12 12 12 12 12 13 13 14 14 14 14 15 15 16 16 16 17 17 16
4 5 6 6 6 6 7 7 7 7 8 9 9 10 10 10 10 10 11 11 12 11 12 12 12 12 12 13 13 13 13 13 13 13 13 14 15 15 15 15 16 16 16
4 5 6 6 6 6 7 7 7 8 8 9 9 10 10 10 10 10 11 11 12 12 12 12 12 12 13 13 14 14 14 14 13 13 13 13 14 14 14 15 15 16 17
5 6 6 7 6 7 7 7 7 8 9 9 10 11 11 11 11 11 11 11 12 12 12 12 13 13 13 13 14 14 14 14 14 14 14 15 15 15 15 15 16 16 16
6 6 7 7 7 7 7 7 8 9 9 10 11 12 12 12 12 11 11 12 13 13 14 13 14 14 15 15 15 15 14 14 14 15 15 15 15 15 15 16 16 16 16
6 7 7 7 7 7 8 8 9 10 11 11 12 12 12 13 12 12 13 13 13 13 14 15 15 15 15 15 15 15 15 15 15 15 15 15 15 15 16 16 16 17 17
7 7 7 7 8 8 9 10 10 11 12 13 13 14 14 13 13 13 13 14 14 15 15 16 16 16 16 16 16 16 16 16 15 15 16 15 15 16 16 16 16 16 17
7 8 9 9 9 9 10 11 11 12 13 14 14 15 15 14 14 14 14 15 15 16 16 17 17 17 17 17 16 16 16 16 16 16 16 17 17 17 17 17 17 18 19
8 9 10 10 10 10 11 12 13 13 14 15 15 16 15 15 15 16 16 16 16 16 16 17 17 17 17 17 17 17 17 17 17 17 18 18 18 18 18 19 19 19 20
9 9 10 11 11 12 12 13 13 14 15 16 16 15 15 16 16 16 17 17 17 17 17 17 17 17 17 17 16 17 17 18 19 18 18 18 18 19 19 20 20 20 21
10 10 11 12 12 13 13 13 14 15 16 16 16 16 17 17 17 17 17 17 18 17 17 18 17 17 17 17 17 18 18 19 19 19 19 19 20 20 21 21 22 22 22
11 12 12 13 13 14 14 15 15 16 17 17 18 18 18 18 17 17 17 18 18 18 18 18 18 17 17 18 18 19 19 19 19 19 20 21 21 22 22 22 23 23 24
12 13 14 15 15 15 16 16 17 17 18 18 19 19 19 18 18 18 18 18 18 19 19 18 18 18 18 18 19 19 20 20 20 20 21 22 23 23 23 23 24 24 25
14 15 15 16 16 17 17 18 18 19 19 20 20 20 19 18 19 19 18 19 19 19 19 19 19 19 19 19 19 20 20 20 21 21 22 23 23 23 24 25 25 26 26
15 16 16 17 18 19 19 19 19 20 20 20 20 20 20 20 20 19 20 20 21 21 20 20 20 20 20 20 20 21 21 22 23 23 24 24 25 26 26 26 27 27 27
17 18 18 19 20 20 20 21 21 21 21 21 21 21 21 21 21 21 21 22 22 22 21 21 22 22 22 22 22 23 23 24 24 24 25 26 27 27 27 28 28 28 28
20 20 20 21 21 22 23 22 22 23 23 23 23 23 23 23 22 23 23 23 23 23 23 23 23 23 23 24 24 25 25 25 26 26 27 27 28 28 28 29 29 29 29
Wind_Direction
107 108 116 124 123 125 123 107 99 91 244 240 248 254 251 249 255 262 272 273 272 267 264 266 264 265 271 272 272 268 270 269 272 272 266 264 264 264 266 267 271 271 268
109 105 104 116 122 122 112 94 78 46 358 273 266 266 265 269 274 278 285 290 281 274 271 271 272 272 273 272 269 266 267 268 273 274 270 266 265 264 267 270 272 269 267
107 100 93 97 116 128 122 105 67 29 351 313 291 275 269 275 283 284 285 295 293 284 278 275 276 279 281 281 279 273 269 271 270 274 276 273 271 269 268 271 274 270 268
96 85 76 78 87 94 105 103 43 15 349 330 318 300 287 282 291 292 290 295 293 292 287 282 281 285 286 285 286 285 278 275 274 276 276 275 275 273 271 272 271 268 268
85 79 66 58 72 91 94 67 38 17 4 349 333 317 306 302 303 302 296 294 296 294 291 292 288 284 283 286 282 279 273 273 273 273 274 272 272 272 272 273 273 269 266
75 72 62 55 60 66 73 59 28 12 357 345 329 318 308 304 303 305 305 300 296 295 293 294 291 286 283 288 284 278 273 273 272 270 274 274 271 269 271 272 273 271 267
70 62 60 60 53 42 32 24 3 350 333 327 320 314 309 308 307 307 304 300 296 293 291 291 292 290 288 290 288 283 278 275 276 271 272 271 270 269 272 272 269 269 269
54 50 48 41 31 18 4 354 344 341 335 324 319 317 314 310 309 309 306 302 298 296 291 289 291 293 294 292 290 287 286 283 281 276 273 273 273 273 272 272 268 268 268
42 36 37 28 25 11 356 343 335 333 332 328 320 317 315 309 308 305 302 304 304 302 297 290 291 294 297 295 292 288 284 285 283 280 275 277 277 275 274 276 273 271 271
37 32 28 25 19 12 359 347 338 332 329 326 322 320 316 312 311 308 305 303 303 302 303 301 297 298 297 296 297 294 293 289 287 284 283 280 277 277 278 279 278 277 276
28 24 21 16 11 5 358 351 344 338 333 330 326 325 322 319 314 312 311 308 306 307 306 304 303 300 296 296 295 294 296 297 295 294 289 284 281 282 283 283 285 280 278
20 15 11 9 5 2 355 350 346 340 337 334 331 330 328 323 322 315 309 307 308 308 308 309 307 305 301 299 298 294 293 293 293 292 290 289 288 286 286 285 285 283 281
11 7 2 2 360 358 353 349 347 343 338 335 333 331 327 324 321 316 313 311 310 311 310 310 309 310 309 304 301 297 294 293 291 289 288 288 291 293 288 286 286 285 284
355 352 349 348 348 348 346 343 340 337 335 332 331 329 327 325 322 318 313 309 307 306 306 306 304 304 304 302 300 299 297 295 293 292 291 290 292 293 290 287 287 287 285
342 338 337 337 338 339 337 335 333 331 329 329 328 325 324 322 319 318 313 309 305 302 302 301 301 301 300 299 299 299 297 296 293 293 292 292 294 294 293 290 289 287 287
336 337 337 335 333 330 328 326 325 323 321 321 322 321 319 316 314 314 313 310 305 303 302 300 300 299 298 297 298 298 297 296 293 293 292 292 293 294 294 293 293 292 292
333 334 334 330 326 323 320 319 318 319 319 319 318 316 314 312 312 311 311 307 305 303 301 300 299 299 298 296 295 296 297 295 292 291 291 291 293 294 297 296 294 292 291
332 333 337 335 329 322 317 316 317 319 318 318 318 316 316 316 315 312 311 308 307 305 303 302 301 299 297 297 296 293 293 293 292 291 291 291 292 293 295 295 294 294 293
332 333 334 335 332 326 322 318 318 320 320 319 319 320 321 319 316 314 314 312 310 308 305 305 303 300 297 296 296 295 294 294 293 292 291 291 293 294 295 294 294 295 294
331 330 330 329 327 326 324 321 319 320 321 321 322 320 318 317 317 316 314 314 313 312 308 303 301 299 298 296 296 297 298 297 295 293 291 290 292 293 294 294 293 293 292
327 328 326 325 323 323 321 319 318 319 321 321 319 317 317 314 314 314 314 313 312 310 309 307 301 299 299 298 298 297 299 300 297 295 293 292 292 293 294 294 294 293 293
322 322 323 321 319 320 320 321 320 320 320 319 317 316 315 313 313 313 314 314 314 314 312 310 306 301 300 300 300 300 299 299 298 297 296 294 294 294 294 294 294 295 295
320 320 321 322 322 322 321 320 320 320 319 318 317 317 316 313 313 312 313 312 313 313 312 311 308 305 302 302 301 301 300 299 298 297 296 297 297 296 295 296 295 294 294
314 315 316 318 318 318 317 316 318 318 317 315 315 315 315 313 313 312 310 310 310 310 310 309 308 306 304 302 303 302 301 299 298 298 297 297 296 295 295 295 295 295 295
310 312 313 313 314 314 316 313 312 313 314 314 313 312 311 311 311 310 309 309 308 307 306 305 305 304 303 302 301 301 300 300 299 298 297 296 296 296 295 295 294 295 295
307 309 310 311 312 313 313 311 310 310 309 310 310 310 310 309 308 308 307 306 306 306 304 303 303 302 301 300 300 299 300 300 300 299 297 296 295 296 295 295 294 295 296
Height
5891 5892 5892 5892 5892 5892 5893 5893 5893 5893 5893 5892 5892 5893 5893 5893 5892 5892 5892 5891 5891 5891 5890 5890 5889 5889 5889 5888 5888 5888 5888 5887 5887 5887 5886 5886 5886 5885 5885 5885 5885 5884 5884
5893 5893 5893 5893 5893 5894 5894 5894 5893 5893 5893 5893 5893 5892 5892 5892 5892 5891 5891 5890 5890 5889 5889 5888 5888 5887 5887 5886 5886 5886 5885 5885 5885 5884 5884 5883 5883 5883 5883 5883 5882 5882 5881
5894 5894 5894 5894 5894 5894 5894 5894 5894 5894 5893 5893 5892 5892 5892 5891 5891 5890 5889 5889 5888 5888 5887 5887 5886 5885 5885 5884 5883 5883 5883 5882 5882 5882 5882 5881 5881 5881 5880 5880 5879 5879 5879
5895 5895 5895 5895 5894 5894 5894 5894 5894 5894 5893 5892 5892 5891 5891 5890 5890 5889 5888 5887 5887 5886 5885 5885 5884 5883 5882 5882 5881 5880 5880 5880 5879 5879 5879 5878 5878 5878 5877 5877 5876 5876 5876
5896 5896 5896 5895 5895 5895 5894 5894 5894 5893 5893 5892 5891 5891 5890 5890 5889 5888 5887 5886 5885 5884 5884 5883 5882 5881 5880 5879 5878 5877 5877 5876 5876 5876 5875 5875 5875 5874 5874 5874 5873 5873 5872
5897 5897 5896 5896 5895 5895 5894 5894 5894 5893 5892 5892 5891 5890 5889 5889 5888 5887 5886 5885 5884 5883 5882 5881 5880 5878 5877 5877 5876 5875 5874 5873 5872 5872 5872 5871 5871 5871 5870 5870 5870 5869 5869
5897 5897 5897 5896 5895 5895 5894 5894 5893 5892 5892 5891 5890 5890 5889 5887 5886 5885 5884 5883 5882 5881 5880 5879 5878 5876 5875 5874 5873 5872 5871 5870 5869 5868 5868 5867 5867 5867 5867 5866 5866 5865 5865
5898 5897 5897 5896 5895 5895 5894 5894 5893 5892 5891 5890 5889 5888 5887 5887 5885 5883 5882 5881 5880 5878 5878 5877 5876 5874 5873 5871 5870 5869 5868 5867 5866 5865 5865 5864 5863 5863 5863 5862 5862 5861 5860
5898 5898 5897 5896 5895 5894 5894 5893 5892 5891 5890 5889 5888 5887 5886 5885 5883 5882 5881 5879 5878 5876 5875 5874 5873 5872 5870 5869 5867 5866 5865 5864 5863 5862 5861 5860 5859 5859 5858 5858 5857 5857 5856
5899 5898 5897 5896 5895 5894 5893 5892 5891 5890 5889 5888 5887 5886 5885 5883 5882 5880 5879 5877 5876 5874 5873 5871 5870 5869 5867 5866 5865 5863 5862 5861 5860 5859 5858 5857 5856 5855 5854 5854 5853 5852 5852
5899 5898 5897 5896 5895 5894 5893 5892 5891 5889 5888 5887 5885 5884 5882 5881 5879 5878 5876 5875 5873 5872 5870 5869 5868 5866 5865 5863 5862 5861 5860 5858 5857 5856 5854 5853 5852 5851 5850 5850 5849 5848 5847
5899 5898 5897 5896 5894 5893 5892 5891 5890 5889 5887 5886 5884 5882 5881 5879 5877 5876 5874 5872 5871 5869 5868 5866 5865 5863 5862 5860 5859 5858 5857 5855 5854 5853 5851 5850 5849 5848 5847 5846 5845 5844 5843
5899 5898 5896 5895 5894 5893 5892 5891 5890 5888 5886 5885 5883 5881 5879 5877 5875 5873 5872 5870 5869 5867 5866 5864 5862 5861 5859 5857 5856 5855 5853 5852 5851 5850 5848 5847 5846 5844 5843 5842 5841 5840 5839
5898 5897 5896 5895 5893 5892 5891 5890 5888 5887 5885 5883 5881 5879 5877 5875 5873 5871 5870 5868 5866 5865 5863 5861 5860 5858 5856 5854 5853 5851 5850 5848 5847 5846 5844 5843 5842 5841 5839 5838 5837 5836 5835
5897 5896 5895 5894 5893 5891 5890 5889 5887 5885 5884 5882 5879 5877 5875 5873 5871 5869 5867 5866 5864 5862 5860 5858 5857 5855 5853 5851 5849 5848 5846 5845 5843 5842 5841 5840 5838 5837 5836 5835 5834 5832 5831
5897 5895 5894 5892 5891 5890 5888 5887 5885 5883 5882 5880 5877 5875 5873 5870 5868 5866 5864 5862 5861 5859 5857 5855 5853 5851 5849 5848 5846 5844 5842 5841 5840 5838 5837 5836 5835 5834 5832 5831 5829 5828 5827
5895 5894 5892 5891 5889 5888 5886 5884 5883 5881 5879 5877 5875 5872 5870 5867 5865 5863 5861 5859 5857 5855 5853 5851 5849 5847 5845 5844 5842 5840 5838 5837 5836 5834 5833 5832 5831 5829 5828 5826 5825 5823 5822
5894 5892 5891 5889 5887 5886 5884 5882 5880 5879 5877 5874 5872 5869 5867 5864 5862 5860 5858 5855 5853 5851 5849 5847 5845 5843 5841 5839 5838 5836 5834 5833 5831 5830 5829 5828 5826 5825 5823 5821 5820 5819 5817
5892 5891 5889 5887 5885 5884 5882 5880 5878 5876 5874 5871 5869 5866 5864 5861 5859 5856 5854 5852 5849 5847 5845 5843 5841 5838 5836 5835 5833 5832 5830 5828 5827 5825 5824 5823 5821 5820 5818 5817 5815 5813 5811
5890 5888 5887 5885 5883 5881 5879 5877 5875 5873 5871 5868 5866 5863 5861 5858 5856 5853 5851 5848 5845 5843 5841 5838 5836 5834 5832 5830 5828 5827 5825 5823 5822 5820 5819 5817 5816 5814 5813 5811 5809 5807 5805
5888 5886 5885 5883 5881 5879 5877 5875 5872 5870 5868 5865 5862 5860 5857 5854 5852 5850 5847 5845 5842 5839 5836 5834 5832 5830 5828 5826 5824 5822 5820 5818 5816 5815 5813 5811 5810 5808 5806 5804 5802 5800 5799
5886 5884 5882 5880 5878 5876 5874 5872 5870 5867 5864 5862 5859 5856 5853 5850 5848 5846 5843 5841 5838 5835 5832 5830 5827 5825 5823 5821 5819 5817 5815 5813 5811 5810 5807 5805 5803 5801 5799 5798 5796 5794 5791
5883 5881 5879 5877 5875 5873 5871 5869 5866 5863 5861 5858 5855 5852 5849 5847 5844 5842 5839 5837 5834 5831 5828 5826 5823 5820 5818 5816 5814 5811 5809 5807 5805 5803 5801 5799 5797 5795 5793 5791 5789 5786 5784
5880 5878 5876 5874 5872 5870 5868 5865 5863 5860 5857 5854 5851 5849 5846 5843 5840 5837 5835 5832 5829 5826 5824 5821 5818 5815 5813 5810 5808 5806 5804 5801 5799 5797 5795 5793 5790 5788 5786 5783 5781 5778 5776
5877 5875 5873 5870 5868 5866 5864 5861 5858 5855 5853 5850 5847 5844 5841 5838 5835 5832 5830 5827 5824 5821 5818 5815 5813 5810 5807 5805 5802 5800 5797 5795 5793 5791 5788 5785 5783 5780 5778 5775 5773 5770 5768
5873 5870 5868 5866 5863 5861 5859 5856 5853 5851 5848 5845 5842 5839 5836 5833 5830 5827 5824 5821 5818 5815 5812 5810 5807 5804 5801 5798 5795 5793 5790 5788 5785 5783 5780 5778 5775 5772 5770 5767 5764 5762 5759